星链-30927 (STARLINK-30927 )

导读 | 星芒AI

STARLINK-30927 是 SpaceX Starlink 卫星互联网项目中的一颗低轨卫星,属于第 14 批组网发射的“星链”卫星之一。该卫星于 2022 年 12 月发射,运行在约 550 公里的轨道高度,旨在为全球提供高速、低延迟的宽带互联网服务。它采用先进的相控阵天线和激光通信技术,支持星间通信,提高网络效率与覆盖范围。作为 Starlink 网络的重要组成部分,STARLINK-30927 有助于增强偏远地区的网络接入能力,并支持应急通信和商业应用。

基本信息
目录编号:
58382
目录名称:
STARLINK-30927
国际标识:
2023-178J
轨道中心:
EARTH
卫星名称:
星链-30927
卫星全名:
星链-30927 (STARLINK-30927 )
卫星状态:
在轨 (已飞行711 天)
发射日期:
2023-11-20 UTC
国别 :
美国 (US)
星等 :
--
轨道信息
数据来源 国际轨道数据 AOE轨道数据
星历时间 2025-10-31T11:28:08+0800
10小时前
查看轨道信息
2025-10-29T21:00:00+0800
2天前
查看轨道信息
半长轴 6853.368km 6853.359km
偏心率 0.0001307 0.0001038
轨道倾角 53.161° 53.159°
近地点辐角 101.485° 92.881°
升交点赤经 243.069° 250.513°
平近点角 258.630° 72.571°
近地点 474.337km 474.512km
远地点 476.129km 475.936km
周期 94.106分钟 94.105分钟
每日圈数 15.301949 15.30198
详细信息
固有亮度:
5
最大亮度:
0.3
卫星平台:
Starlink v2.0 mini
覆盖范围:
全球
运营商:
太空探索技术公司
运营商所在国:
美国
制造商(研发单位):
太空探索技术公司
制造商所在国:
美国
使用方式:
暂无
卫星简介
星链(Starlink)计划是由太空探索技术公司(SpaceX)提出的一个巨型低轨卫星互联网星座项目,计划在2019年至2024年间在太空搭建由约1.2万颗卫星组成的“星链”网络,其中1584颗将部署在地球上空550千米处的近地轨道,并从2020年开始工作。该卫星仍在工作。
2D轨道图
3D轨道图
轨道高度分析图
轨道倾角分析图
轨道综合分析图
查看轨道综合分析图